[[{"header":{"parameterUnit":"m.s-1","parameterCategory":1,"la1":30.2991,"la2":30.254,"lo1":-89.0895,"lo2":-89.0444,"dy":0.0017,"dx":0.0017,"nx":28,"ny":28,"refTime":"2023-04-03T21:00:00:Z","depth":0,"parameterNumber":2,"parameterNumberName":"U-component_of_WINDS"},"data":[0,0,0,0,0,0,0,0,0,0,0,0,0,0,0,0,0,0,0,0,0,0,0,0,0,0,0,0,0,0,0,0,0,0,0,0,0,0,0,0,0,0,0,0,0,0,0,0,0,0,0,0,0,0,0,0,0,0,-4.0309,-4.0311,0,-4.0432,-4.0433,-4.0434,-4.0446,-4.0445,-4.0444,-4.0443,-4.0568,-4.0573,-4.0577,0,0,0,0,0,0,0,0,0,0,0,0,0,-4.0087,-4.0091,-4.0309,-4.0311,-4.0312,-4.0431,-4.0433,-4.0435,-4.0447,-4.0445,-4.0443,-4.0442,-4.0567,-4.0572,-4.0577,0,0,0,0,0,0,0,0,0,0,0,0,0,-4.0194,-4.0092,-4.0309,-4.0332,-4.0336,-4.0431,-4.0433,-4.0435,-4.0447,-4.0445,-4.0443,-4.0441,-4.0565,-4.0571,-4.0578,-4.0658,0,0,-4.0599,-4.0602,0,0,0,0,0,0,0,0,-4.0188,-4.0202,-4.0327,-4.0331,-4.0335,-4.0422,-4.0401,-4.051,-4.0447,-4.0405,-4.0443,-4.044,-4.0521,-4.0531,-4.0558,-4.0664,-4.067,-4.06,-4.0604,-4.0607,-4.0609,0,0,0,0,0,0,0,-4.018,-4.0197,-4.0358,-4.0329,-4.0334,-4.0337,-4.035,-4.0422,-4.0472,-4.0408,-4.0409,-4.0424,-4.0523,-4.0552,-4.0561,-4.0672,-4.0599,-4.0605,-4.061,-4.0612,-4.085,-4.0853,0,0,0,0,0,0,-4.0168,-4.0191,-4.0354,-4.0361,-4.0255,-4.0343,-4.0358,-4.0396,-4.0471,-4.0481,-4.0425,-4.0424,-4.0541,-4.0554,-4.0566,-4.0665,-4.0607,-4.0613,-4.0617,-4.0848,-4.0851,-4.0853,0,0,0,0,0,0,-4.0164,-4.0183,-4.0349,-4.0276,-4.0298,-4.0349,-4.0392,-4.0399,-4.0428,-4.0484,-4.0493,-4.0446,-4.054,-4.0556,-4.0636,-4.0669,-4.0616,-4.0622,-4.0845,-4.0849,-4.0852,-4.0863,0,0,0,0,0,0,-4.0157,-4.0181,-4.0211,-4.0277,-4.0302,-4.0416,-4.0394,-4.0403,-4.044,-4.0439,-4.0506,-4.0515,-4.054,-4.0625,-4.0642,-4.0678,-4.0627,-4.0843,-4.0847,-4.0851,-4.086,-4.0866,-4.0872,0,0,0,0,0,-4.0149,-4.021,-4.0213,-4.0233,-4.0341,-4.0418,-4.0432,-4.0459,-4.0443,-4.0474,-4.051,-4.0513,-4.0663,-4.0633,-4.0653,-4.069,-4.0841,-4.0846,-4.0851,-4.0857,-4.0865,-4.0872,0,0,0,0,0,0,-4.0146,-4.0218,-4.0223,-4.0306,-4.0356,-4.0419,-4.0459,-4.0467,-4.0522,-4.0519,-4.0551,-4.0566,-4.0644,-4.0675,-4.0641,-4.0773,-4.075,-4.0759,-4.0748,-4.0757,-4.0762,-4.0752,-4.0633,0,0,0,0,0,-4.0156,-4.0212,-4.0272,-4.034,-4.0364,-4.0408,-4.0442,-4.046,-4.0512,-4.0533,-4.0575,-4.0626,-4.0685,-4.0723,-4.078,-4.0865,-4.088,-4.0901,-4.0907,-4.0912,-4.0919,-4.0966,-4.0976,-4.087,-4.087,-4.087,0,0,-4.0175,-4.0221,-4.0255,-4.034,-4.0381,-4.0438,-4.0425,-4.0487,-4.053,-4.0542,-4.0619,-4.0652,-4.0712,-4.0794,-4.0832,-4.0823,-4.0952,-4.0918,-4.0921,-4.0926,-4.0972,-4.0982,-4.0991,-4.0873,-4.0873,-4.0872,0,0,-4.0239,-4.028,-4.0341,-4.0382,-4.0443,-4.0472,-4.0487,-4.055,-4.0573,-4.0651,-4.0661,-4.0714,-4.0815,-4.0856,-4.0891,-4.0973,-4.0978,-4.0991,-4.1022,-4.1068,-4.1076,-4.1084,-4.1113,-4.1123,-4.0999,-4.0999,-4.0999,0,-4.0255,-4.0342,-4.0371,-4.0433,-4.047,-4.0485,-4.0547,-4.0586,-4.0663,-4.0689,-4.0677,-4.0804,-4.0846,-4.0938,-4.0958,-4.0986,-4.1004,-4.0983,-4.1073,-4.1081,-4.1088,-4.1116,-4.1127,-4.1,-4.1,-4.0999,-4.0999,0,-4.0358,-4.0419,-4.0461,-4.0535,-4.0578,-4.0639,-4.0678,-4.0718,-4.0732,-4.0763,-4.0842,-4.0893,-4.096,-4.0984,-4.0999,-4.1079,-4.1071,-4.1066,-4.1044,-4.1099,-4.1125,-4.1136,-4.1001,-4.1001,-4.1001,-4.1,0,0,-4.0422,-4.0513,-4.0528,-4.0562,-4.0632,-4.0679,-4.0742,-4.0809,-4.0842,-4.0895,-4.0949,-4.1035,-4.1031,-4.107,-4.109,-4.113,-4.1192,-4.112,-4.1122,-4.1131,-4.1284,-4.1286,-4.1298,-4.1196,-4.1199,-4.12,-4.1278,0,-4.0493,-4.0605,-4.0634,-4.0729,-4.0785,-4.0801,-4.0856,-4.0905,-4.0936,-4.0989,-4.1023,-4.1083,-4.1073,-4.1097,-4.1138,-4.1175,-4.1223,-4.1171,-4.1246,-4.1248,-4.1228,-4.1312,-4.1314,-4.1385,-4.1289,-4.1291,-4.1292,0,-4.059,-4.0646,-4.0746,-4.081,-4.0834,-4.0883,-4.0947,-4.0997,-4.1054,-4.1074,-4.1118,-4.1134,-4.1201,-4.1177,-4.127,-4.1234,-4.1267,-4.129,-4.1294,-4.13,-4.1272,-4.1319,-4.1409,-4.1419,-4.1309,-4.1308,-4.1306,0,-4.0625,-4.0726,-4.0799,-4.0827,-4.0903,-4.0937,-4.0971,-4.1025,-4.1064,-4.112,-4.1146,-4.1209,-4.1243,-4.1293,-4.1326,-4.1306,-4.1416,-4.1395,-4.1433,-4.1433,-4.1454,-4.1452,-4.1548,-4.1478,-4.1478,-4.1478,-4.1477,0,-4.0701,-4.0761,-4.0815,-4.086,-4.0929,-4.0963,-4.103,-4.1064,-4.1113,-4.1165,-4.1184,-4.1232,-4.1274,-4.1329,-4.1355,-4.1428,-4.1444,-4.1461,-4.1467,-4.1458,-4.1456,-4.1479,-4.1474,-4.1481,-4.148,-4.1479,-4.1479,0,-4.075,-4.0789,-4.087,-4.0935,-4.0954,-4.1001,-4.1058,-4.1102,-4.1135,-4.12,-4.1218,-4.1268,-4.1333,-4.1372,-4.1455,-4.1473,-4.1553,-4.1557,-4.1533,-4.1535,-4.1572,-4.1567,-4.1685,-4.1702,-4.1622,-4.1622,-4.1623,0,-4.0795,-4.0842,-4.0913,-4.0949,-4.0983,-4.1041,-4.1081,-4.1117,-4.1157,-4.1226,-4.1262,-4.1329,-4.1384,-4.1488,-4.1532,-4.1595,-4.1601,-4.1638,-4.161,-4.16,-4.16,-4.1596,-4.1601,-4.1642,-4.1642,-4.1643,-4.1643,0,-4.087,-4.0887,-4.0943,-4.1006,-4.1053,-4.1105,-4.1156,-4.1185,-4.1229,-4.1274,-4.1341,-4.1384,-4.1469,-4.1534,-4.1602,-4.1637,-4.1648,-4.1652,-4.1664,-4.1655,-4.1638,-4.1647,-4.1544,-4.1649,-4.1648,-4.1648,-4.1648,-4.1647,-4.0918,-4.096,-4.1017,-4.1079,-4.1122,-4.117,-4.1215,-4.1253,-4.1309,-4.1381,-4.1399,-4.1469,-4.1526,-4.1618,-4.1655,-4.1711,-4.1705,-4.1723,-4.1727,-4.173,-4.1731,-4.1631,-4.1724,-4.1723,-4.1723,-4.1723,-4.1723,0,-4.0993,-4.103,-4.1087,-4.1159,-4.1208,-4.1215,-4.1272,-4.1313,-4.1374,-4.1426,-4.148,-4.1558,-4.1622,-4.1672,-4.1738,-4.1773,-4.178,-4.1789,-4.1786,-4.1794,-4.1733,-4.1715,-4.1783,-4.1783,-4.1783,-4.1783,-4.1783,-4.1783,-4.1037,-4.111,-4.1134,-4.1228,-4.1266,-4.1334,-4.1366,-4.1411,-4.1453,-4.1538,-4.1592,-4.1624,-4.1676,-4.1746,-4.1806,-4.1819,-4.1842,-4.185,-4.1864,-4.1805,-4.1799,-4.1792,-4.1776,-4.1855,-4.1855,-4.1921,-4.1921,-4.1922]},{"header":{"parameterUnit":"m.s-1","parameterCategory":1,"la1":30.2991,"la2":30.254,"lo1":-89.0895,"lo2":-89.0444,"dy":0.0017,"dx":0.0017,"nx":28,"ny":28,"refTime":"2023-04-03T21:00:00:Z","depth":0,"parameterNumber":3,"parameterNumberName":"V-component_of_WINDS"},"data":[0,0,0,0,0,0,0,0,0,0,0,0,0,0,0,0,0,0,0,0,0,0,0,0,0,0,0,0,0,0,0,0,0,0,0,0,0,0,0,0,0,0,0,0,0,0,0,0,0,0,0,0,0,0,0,0,0,0,4.8515,4.8515,0,4.8577,4.8577,4.8578,4.8557,4.8555,4.8554,4.8553,4.8614,4.8617,4.8619,0,0,0,0,0,0,0,0,0,0,0,0,0,4.8378,4.8381,4.8515,4.8515,4.8516,4.8576,4.8577,4.8578,4.8557,4.8555,4.8554,4.8552,4.8613,4.8616,4.862,0,0,0,0,0,0,0,0,0,0,0,0,0,4.8439,4.8382,4.8515,4.8513,4.8513,4.8576,4.8577,4.8578,4.8557,4.8555,4.8553,4.8551,4.8612,4.8616,4.862,4.8687,0,0,4.8633,4.8635,0,0,0,0,0,0,0,0,4.8435,4.8444,4.8512,4.8513,4.8514,4.8557,4.8552,4.8615,4.8558,4.8541,4.8553,4.855,4.8596,4.8602,4.8618,4.869,4.8693,4.8634,4.8636,4.8638,4.8639,0,0,0,0,0,0,0,4.8431,4.8441,4.8539,4.8514,4.8514,4.8509,4.8516,4.8563,4.8579,4.8542,4.8541,4.8548,4.8596,4.8614,4.8619,4.8694,4.8634,4.8637,4.864,4.8642,4.8828,4.883,0,0,0,0,0,0,4.8427,4.8437,4.8537,4.8541,4.8469,4.8513,4.852,4.8545,4.8578,4.8582,4.855,4.8547,4.8607,4.8614,4.8621,4.8704,4.8638,4.8642,4.8645,4.8826,4.8828,4.8831,0,0,0,0,0,0,4.8424,4.8436,4.8535,4.8489,4.8501,4.8518,4.8546,4.8547,4.8565,4.8585,4.8587,4.8565,4.8606,4.8615,4.8672,4.8706,4.8644,4.8648,4.8823,4.8826,4.883,4.887,0,0,0,0,0,0,4.842,4.8435,4.846,4.849,4.8504,4.8585,4.8548,4.855,4.8573,4.8569,4.8599,4.8602,4.8605,4.8666,4.8676,4.8711,4.8652,4.882,4.8824,4.8829,4.8865,4.8874,4.8882,0,0,0,0,0,4.8415,4.8468,4.8462,4.8474,4.8536,4.8587,4.8595,4.8597,4.8575,4.8601,4.8615,4.8601,4.8701,4.8672,4.8683,4.872,4.8818,4.8823,4.8828,4.8862,4.8872,4.8881,0,0,0,0,0,0,4.8441,4.8472,4.8465,4.8529,4.8556,4.8583,4.8616,4.8608,4.8641,4.8636,4.8638,4.8645,4.8704,4.8717,4.8685,4.8788,4.8756,4.8764,4.8777,4.8788,4.8796,4.8791,4.8655,0,0,0,0,0,4.8454,4.8493,4.8518,4.8572,4.8586,4.8599,4.8621,4.8621,4.8648,4.8659,4.8676,4.8702,4.874,4.8764,4.88,4.8867,4.8875,4.8898,4.8906,4.8913,4.892,4.8959,4.8971,4.8848,4.8848,4.8848,0,0,4.8481,4.8503,4.8527,4.8577,4.8598,4.8639,4.8608,4.8651,4.8682,4.8665,4.8721,4.8735,4.8764,4.8828,4.8856,4.8841,4.8956,4.892,4.8925,4.8928,4.8966,4.8977,4.8988,4.8852,4.8851,4.8851,0,0,4.8552,4.8572,4.8621,4.8643,4.8675,4.8684,4.8696,4.8725,4.8734,4.879,4.8779,4.8815,4.8879,4.8902,4.8921,4.9005,4.8994,4.9016,4.9058,4.9097,4.9106,4.9115,4.9146,4.9157,4.9023,4.9023,4.9023,0,4.8582,4.8643,4.8646,4.8692,4.8715,4.8704,4.8754,4.8774,4.8816,4.8833,4.8815,4.8897,4.8915,4.8985,4.9006,4.9022,4.9036,4.9012,4.9105,4.9113,4.9121,4.9151,4.9163,4.9025,4.9025,4.9025,4.9025,0,4.8679,4.8722,4.8757,4.88,4.8827,4.8874,4.8885,4.8912,4.8911,4.8922,4.8981,4.9003,4.9045,4.9061,4.9059,4.9131,4.9121,4.9104,4.9072,4.9136,4.9164,4.9175,4.9029,4.9028,4.9027,4.9027,0,0,4.8766,4.8813,4.8826,4.8846,4.8882,4.8915,4.8963,4.9004,4.9028,4.9058,4.9099,4.9155,4.914,4.9163,4.9164,4.9197,4.9264,4.9176,4.9177,4.9193,4.9348,4.9361,4.9374,4.9258,4.926,4.9261,4.9346,0,4.8842,4.8926,4.8932,4.9008,4.9049,4.904,4.9082,4.9109,4.9121,4.9157,4.917,4.9211,4.9187,4.9201,4.9234,4.9249,4.9295,4.9243,4.9296,4.9298,4.929,4.9389,4.9403,4.9481,4.9357,4.9359,4.936,0,4.894,4.8976,4.9057,4.909,4.9107,4.9144,4.9185,4.9219,4.925,4.9257,4.9284,4.928,4.933,4.9296,4.9365,4.933,4.9352,4.9363,4.9366,4.9372,4.9333,4.9398,4.9506,4.9518,4.9377,4.9376,4.9374,0,4.8999,4.9066,4.9124,4.9141,4.9181,4.9208,4.9225,4.9254,4.928,4.9315,4.9332,4.9371,4.9393,4.9424,4.9432,4.9406,4.9502,4.9468,4.951,4.951,4.9531,4.953,4.9645,4.9543,4.9543,4.9543,4.9543,0,4.9083,4.9133,4.9151,4.9187,4.9243,4.925,4.9306,4.9322,4.9348,4.9387,4.9381,4.9418,4.9426,4.9465,4.9471,4.9529,4.9538,4.9546,4.9547,4.9547,4.9546,4.9562,4.9557,4.9546,4.9545,4.9545,4.9544,0,4.9157,4.9171,4.9234,4.9267,4.9277,4.9317,4.9346,4.938,4.9393,4.9442,4.9454,4.9473,4.9519,4.953,4.9584,4.9588,4.9657,4.9652,4.9647,4.9647,4.9689,4.9686,4.9819,4.9838,4.9723,4.9724,4.9725,0,4.921,4.9249,4.9288,4.9314,4.9333,4.9376,4.9402,4.9411,4.9439,4.9479,4.9509,4.9554,4.9591,4.9664,4.9683,4.9724,4.9722,4.9766,4.9728,4.9727,4.9724,4.9722,4.9727,4.9773,4.9774,4.9775,4.9776,0,4.9304,4.931,4.9349,4.9392,4.9424,4.9458,4.949,4.9512,4.9525,4.9557,4.9604,4.9633,4.9689,4.9734,4.9777,4.9795,4.9789,4.9788,4.98,4.9801,4.9797,4.9802,4.9668,4.9785,4.9784,4.9783,4.9783,4.9782,4.9371,4.9406,4.944,4.9484,4.951,4.954,4.9576,4.9593,4.9633,4.9681,4.9683,4.9735,4.9767,4.9824,4.9845,4.9886,4.9872,4.9889,4.9894,4.9898,4.9903,4.979,4.9893,4.9893,4.9893,4.9892,4.9892,0,4.9466,4.9488,4.9529,4.9575,4.9611,4.9602,4.9638,4.9668,4.9715,4.9745,4.9782,4.9838,4.9883,4.9906,4.995,4.9979,4.9977,4.9991,4.9989,4.9994,4.9911,4.9897,4.9991,4.9991,4.9991,4.9991,4.9991,4.9991,4.952,4.958,4.959,4.9663,4.9684,4.9736,4.9758,4.9787,4.9812,4.9875,4.9912,4.9927,4.9956,5.0003,5.0044,5.005,5.0067,5.0082,5.0087,5.0009,4.9999,4.999,4.9976,5.0086,5.0086,5.0166,5.0166,5.0167]}]]